FW8347 Weather Reports


Display with metric or nautical units.
time (UTC)temp
F
wind
direction
speed
MPH
gust
MPH
rain 1hr
in
rain 24hr
in
rain mn
in
humidity
%
barometer
mb
20260509221545 66 211 8.0 14.0 0.00 0.00 0.00 58 1003.2
20260509220045 67 198 9.0 16.0 0.00 0.00 0.00 58 1003.2
20260509214544 66 179 7.0 18.0 0.00 0.00 0.00 59 1003.2
20260509213045 66 152 8.0 22.0 0.00 0.00 0.00 64 1003.3
20260509211542 67 189 10.0 22.0 0.00 0.00 0.00 61 1003.1
20260509210053 67 187 10.0 17.0 0.00 0.00 0.00 52 1003.2
20260509204552 67 205 8.0 16.0 0.00 0.00 0.00 54 1003.3
20260509203044 67 238 10.0 19.0 0.00 0.00 0.00 52 1003.5
20260509201549 68 233 8.0 15.0 0.00 0.00 0.00 57 1003.6
20260509194545 67 209 12.0 17.0 0.00 0.00 0.00 58 1003.6
20260509193045 66 208 10.0 18.0 0.00 0.00 0.00 60 1004.0
20260509191543 66 180 9.0 15.0 0.00 0.00 0.00 61 1004.3
20260509190043 66 219 8.0 19.0 0.00 0.00 0.00 56 1004.4
20260509184555 65 221 10.0 24.0 0.00 0.00 0.00 61 1004.7
20260509183046 64 198 8.0 14.0 0.00 0.00 0.00 66 1005.1
20260509181557 64 177 8.0 17.0 0.00 0.00 0.00 67 1005.2
20260509180045 64 182 12.0 18.0 0.00 0.00 0.00 66 1005.3
20260509174546 64 203 10.0 15.0 0.00 0.00 0.00 65 1005.4
20260509173049 64 147 10.0 18.0 0.00 0.00 0.00 69 1005.4
20260509171539 63 193 9.0 17.0 0.00 0.00 0.00 67 1005.5
20260509170048 63 167 4.0 11.0 0.00 0.00 0.00 66 1005.7
20260509164548 62 139 6.0 14.0 0.00 0.00 0.00 67 1005.9
20260509163045 62 109 8.0 12.0 0.00 0.00 0.00 68 1006.4
20260509161544 62 168 4.0 10.0 0.00 0.00 0.00 70 1006.5
20260509160047 61 138 6.0 12.0 0.00 0.00 0.00 70 1006.6
20260509154545 60 128 8.0 12.0 0.00 0.00 0.00 72 1006.7
20260509153047 60 184 6.0 13.0 0.00 0.00 0.00 69 1006.9
20260509151552 60 172 6.0 15.0 0.00 0.00 0.00 70 1006.9
20260509150045 59 190 4.0 12.0 0.00 0.00 0.00 69 1007.1
20260509144559 59 175 7.0 12.0 0.00 0.00 0.00 71 1007.2
20260509143105 58 180 6.0 11.0 0.00 0.00 0.00 73 1007.2
20260509141545 56 149 4.0 13.0 0.00 0.00 0.00 76 1007.4
20260509140049 55 173 7.0 13.0 0.00 0.00 0.00 77 1007.6
20260509134600 54 198 9.0 15.0 0.00 0.01 0.00 77 1007.8
20260509133046 54 192 8.0 14.0 0.00 0.01 0.00 77 1008.0
20260509131607 52 183 8.0 13.0 0.00 0.01 0.00 78 1008.1
20260509130055 51 196 7.0 12.0 0.00 0.01 0.00 79 1008.2
20260509124544 50 163 9.0 14.0 0.00 0.03 0.00 79 1008.1
20260509123101 49 184 10.0 15.0 0.00 0.03 0.00 79 1008.1
20260509121600 48 183 8.0 15.0 0.00 0.03 0.00 79 1008.3
20260509120047 47 148 7.0 12.0 0.00 0.03 0.00 79 1008.2
20260509114544 46 183 8.0 15.0 0.00 0.03 0.00 78 1008.2
20260509113048 46 360 8.0 16.0 0.00 0.03 0.00 77 1008.2
20260509111600 46 159 8.0 15.0 0.00 0.03 0.00 77 1008.3
20260509110041 45 163 8.0 14.0 0.00 0.03 0.00 78 1008.1
20260509104548 45 150 9.0 16.0 0.00 0.03 0.00 77 1008.1
20260509103059 44 154 10.0 17.0 0.00 0.03 0.00 77 1008.1
20260509101615 44 165 10.0 17.0 0.00 0.03 0.00 78 1007.9
20260509100047 43 153 9.0 15.0 0.00 0.03 0.00 77 1008.1
20260509094549 43 153 9.0 14.0 0.00 0.03 0.00 77 1008.0
20260509093045 43 167 8.0 12.0 0.00 0.03 0.00 76 1007.9
20260509091545 44 148 8.0 12.0 0.00 0.03 0.00 75 1008.1
20260509090053 44 154 8.0 13.0 0.00 0.03 0.00 74 1008.0
20260509084547 44 163 8.0 14.0 0.00 0.03 0.00 73 1008.2
20260509083046 44 161 7.0 12.0 0.00 0.03 0.00 74 1008.5
20260509081547 44 158 7.0 11.0 0.00 0.03 0.00 73 1008.6
20260509080044 43 143 7.0 11.0 0.00 0.03 0.00 74 1008.6
20260509074546 43 165 7.0 13.0 0.00 0.03 0.00 74 1008.8
20260509073054 43 166 7.0 11.0 0.00 0.03 0.00 74 1008.9
20260509071554 43 182 6.0 10.0 0.00 0.03 0.00 74 1009.0
20260509070048 43 175 7.0 12.0 0.00 0.03 0.00 74 1009.2
20260509064557 43 184 7.0 11.0 0.00 0.03 0.00 74 1009.1
20260509063046 43 173 8.0 12.0 0.00 0.03 0.00 74 1009.3
20260509061541 43 187 7.0 10.0 0.00 0.03 0.00 75 1009.4
20260509060047 43 172 6.0 10.0 0.00 0.03 0.00 76 1009.8
20260509054557 42 175 6.0 9.0 0.00 0.04 0.00 76 1010.0
20260509053048 42 175 7.0 10.0 0.00 0.04 0.00 76 1010.0
20260509051543 42 172 6.0 9.0 0.00 0.04 0.00 77 1010.2
20260509050046 42 171 6.0 9.0 0.00 0.04 0.00 75 1010.2
20260509044540 42 173 6.0 8.0 0.00 0.06 0.00 76 1010.4
20260509043045 43 173 5.0 8.0 0.00 0.06 0.00 74 1010.5
20260509041614 43 169 4.0 7.0 0.00 0.06 0.00 74 1010.7
20260509040050 43 162 5.0 8.0 0.00 0.06 0.00 74 1010.7
20260509034543 42 168 4.0 6.0 0.00 0.06 0.06 75 1010.8
20260509033040 42 167 4.0 7.0 0.00 0.06 0.06 77 1010.7
20260509031547 41 140 2.0 5.0 0.00 0.06 0.06 80 1010.8
20260509030046 40 140 3.0 4.0 0.00 0.06 0.06 82 1010.9
20260509024541 41 140 2.0 4.0 0.00 0.06 0.06 84 1010.9
20260509023051 41 140 2.0 4.0 0.00 0.06 0.06 83 1010.9
20260509021546 42 140 2.0 4.0 0.00 0.06 0.06 80 1010.9
20260509020053 43 140 2.0 3.0 0.00 0.06 0.06 78 1011.0
20260509014544 43 140 2.0 4.0 0.00 0.06 0.06 76 1011.0
20260509013054 44 140 3.0 5.0 0.00 0.06 0.06 72 1010.9
20260509011542 45 140 3.0 5.0 0.00 0.06 0.06 73 1010.8
20260509010051 46 140 3.0 5.0 0.00 0.06 0.06 73 1010.5
20260509004545 46 140 2.0 4.0 0.00 0.06 0.06 71 1010.4
20260509003046 47 140 3.0 5.0 0.00 0.06 0.06 70 1010.4
20260509001543 48 102 2.0 4.0 0.00 0.06 0.06 70 1010.4
20260509000044 49 102 2.0 4.0 0.00 0.06 0.06 70 1010.3
20260508234545 49 360 1.0 4.0 0.00 0.06 0.06 72 1010.3
20260508233046 49 360 2.0 5.0 0.00 0.06 0.06 72 1010.1
20260508231542 48 360 3.0 5.0 0.00 0.06 0.06 72 1010.2
20260508230049 47 360 3.0 9.0 0.00 0.06 0.06 74 1010.3
20260508224546 48 103 3.0 7.0 0.00 0.06 0.06 76 1010.2
20260508223046 48 85 4.0 7.0 0.00 0.06 0.06 77 1010.2